Saipan, MP

11:21 PM ChST on October 17, 2017 (GMT +1000)
Saipan International

Weather History for PGSN - March, 2013

Change the Weather History Date:

Sunday, March 3, 2013

  Actual Average Record
Temperature  
Mean Temperature 80 °F -  
Max Temperature 84 °F 82 °F 86 °F (1999)
Min Temperature 75 °F 73 °F 71 °F (2007)
Cooling Degree Days 14    
Growing Degree Days 30 (Base 50)    
Moisture  
Dew Point 74 °F    
Average Humidity 82    
Maximum Humidity 91    
Minimum Humidity 72    
Precipitation  
Precipitation 0.00 in - - ()
Sea Level Pressure  
Sea Level Pressure 29.91 in    
Wind  
Wind Speed 9 mph (East)    
Max Wind Speed 15 mph    
Max Gust Speed -    
Visibility 10 miles    
Events      
Averages and records for this station are not official NWS values.
T = Trace of Precipitation, MM = Missing Value Source: NWS Daily Summary

Daily Weather History Graph

Daily Weather History Graph

Search for Another Location

Airport or City:

Trip Planner

Search our weather history database for the weather conditions in past years. The results will help you decide how hot, cold, wet, or windy it might be!

Date:

Astronomy

Mar. 03, 2013 Rise Set
Actual Time 6:33 AM ChST 6:25 PM ChST
Civil Twilight 6:11 AM ChST 6:46 PM ChST
Nautical Twilight 5:46 AM ChST 7:11 PM ChST
Astronomical Twilight 5:21 AM ChST 7:36 PM ChST
Moon 11:25 PM ChST (3/3) 10:14 AM ChST (3/3)
Length of Visible Light 12h 35m
Length of Day
11h 52m
Waning Gibbous, 70% of the Moon is Illuminated
Mar 3
Waning Gibbous
Mar 5
Last Quarter
Mar 12
New
Mar 20
First Quarter
Mar 27
Full

Hourly Weather History & Observations

Time (ChST) Temp. Heat Index Dew Point Humidity Pressure Visibility Wind Dir Wind Speed Gust Speed Precip Events Conditions
12:54 AM 77.0 °F - 73.0 °F 88% 29.94 in 10.0 mi East 8.1 mph - N/A   Scattered Clouds
1:54 AM 77.0 °F - 73.0 °F 88% 29.92 in 10.0 mi East 9.2 mph - N/A   Mostly Cloudy
2:54 AM 77.0 °F - 73.0 °F 88% 29.90 in 10.0 mi East 8.1 mph - N/A   Scattered Clouds
3:54 AM 75.9 °F - 73.0 °F 91% 29.89 in 10.0 mi East 6.9 mph - N/A   Scattered Clouds
4:54 AM 75.9 °F - 73.0 °F 91% 29.89 in 10.0 mi East 5.8 mph - N/A   Partly Cloudy
5:54 AM 75.9 °F - 73.0 °F 91% 29.90 in 10.0 mi East 6.9 mph - N/A   Scattered Clouds
6:54 AM 77.0 °F - 73.0 °F 88% 29.92 in 10.0 mi East 8.1 mph - N/A   Partly Cloudy
7:54 AM 79.0 °F - 73.9 °F 84% 29.93 in 10.0 mi East 9.2 mph - N/A   Partly Cloudy
8:54 AM 82.0 °F 87.9 °F 73.9 °F 76% 29.94 in 10.0 mi East 10.4 mph - N/A   Scattered Clouds
9:54 AM 82.0 °F 87.9 °F 73.9 °F 76% 29.96 in 10.0 mi East 12.7 mph - N/A   Scattered Clouds
10:54 AM 82.0 °F 87.4 °F 73.0 °F 74% 29.95 in 10.0 mi East 11.5 mph - N/A   Scattered Clouds
11:54 AM 82.9 °F 89.4 °F 73.9 °F 74% 29.92 in 10.0 mi East 13.8 mph - N/A   Scattered Clouds
12:54 PM 84.0 °F 91.2 °F 73.9 °F 72% 29.90 in 10.0 mi ENE 11.5 mph - N/A   Scattered Clouds
1:54 PM 84.0 °F 91.2 °F 73.9 °F 72% 29.87 in 10.0 mi ENE 15.0 mph - N/A   Partly Cloudy
2:30 PM 82.4 °F 88.2 °F 73.4 °F 74% 29.80 in 10.0 mi ENE 10.4 mph - N/A   Mostly Cloudy
2:54 PM 81.0 °F 86.2 °F 73.9 °F 79% 29.86 in 10.0 mi East 12.7 mph - N/A   Scattered Clouds
3:54 PM 82.9 °F 89.4 °F 73.9 °F 74% 29.86 in 10.0 mi East 13.8 mph - 0.00 in   Scattered Clouds
4:54 PM 80.1 °F 84.5 °F 73.9 °F 81% 29.87 in 10.0 mi East 10.4 mph - N/A   Mostly Cloudy
5:54 PM 80.1 °F 84.5 °F 73.9 °F 81% 29.89 in 10.0 mi East 11.5 mph - N/A   Mostly Cloudy
6:54 PM 79.0 °F - 73.9 °F 84% 29.90 in 10.0 mi East 8.1 mph - N/A   Overcast
7:54 PM 79.0 °F - 73.9 °F 84% 29.92 in 10.0 mi East 8.1 mph - N/A   Mostly Cloudy
8:54 PM 79.0 °F - 73.9 °F 84% 29.94 in 10.0 mi East 10.4 mph - N/A   Mostly Cloudy
9:54 PM 78.1 °F - 73.0 °F 84% 29.95 in 10.0 mi East 8.1 mph - N/A   Partly Cloudy
10:54 PM 79.0 °F - 73.9 °F 84% 29.95 in 10.0 mi East 6.9 mph - N/A   Scattered Clouds
11:01 PM 78.8 °F - 73.4 °F 83% 29.88 in 10.0 mi East 9.2 mph - N/A   Mostly Cloudy
11:08 PM 78.8 °F - 73.4 °F 83% 29.88 in 10.0 mi East 8.1 mph - N/A   Scattered Clouds
11:54 PM 78.1 °F - 73.9 °F 87% 29.95 in 10.0 mi East 9.2 mph - N/A   Mostly Cloudy